When you browse on this site, cookies collect data to enhance your experience and personalize the content and advertising you see.
Visit our Privacy Policy to learn more. By continuing to use the site, you agree to this use of cookies and data.
  • Em Portugal
  • Lista de países
  • Para 7 dias
  • Temperatura da água
  • Mapas de satélite
  • Mapa do tempo
  • Widgets de tempo
  • user-avatar
    Iniciar Sessão

    Previsão horária em Rovenskaya Sloboda

    Hoje, 20 Junho, Quinta-feira

    Tempo Temperatura Precipitação Vento Pressão Humidade
    00:00 +18°C° 0 mm 2 m/s 750 mmHg 82%
    01:00 +18°C° 0 mm 2 m/s 751 mmHg 84%
    02:00 +17°C° 0 mm 2 m/s 751 mmHg 85%
    03:00 +17°C° 0 mm 2 m/s 751 mmHg 85%
    04:00 +17°C° 0 mm 2 m/s 751 mmHg 85%
    05:00 +18°C° 0 mm 2 m/s 751 mmHg 85%
    06:00 +19°C° 0 mm 2 m/s 751 mmHg 81%
    07:00 +21°C° 0 mm 2 m/s 751 mmHg 77%
    08:00 +24°C° 0 mm 2 m/s 751 mmHg 73%
    09:00 +25°C° 0 mm 3 m/s 751 mmHg 69%
    10:00 +26°C° 0 mm 3 m/s 751 mmHg 66%
    11:00 +28°C° 0 mm 4 m/s 750 mmHg 62%
    12:00 +28°C° 0.1 mm 4 m/s 750 mmHg 60%
    13:00 +28°C° 0.1 mm 4 m/s 750 mmHg 59%
    14:00 +29°C° 0.1 mm 4 m/s 750 mmHg 57%
    15:00 +28°C° 0.3 mm 4 m/s 749 mmHg 62%
    16:00 +28°C° 0.3 mm 3 m/s 749 mmHg 67%
    17:00 +27°C° 0.3 mm 3 m/s 749 mmHg 72%
    18:00 +26°C° 0.3 mm 3 m/s 749 mmHg 77%
    19:00 +25°C° 0.3 mm 3 m/s 749 mmHg 81%
    20:00 +23°C° 0.3 mm 2 m/s 749 mmHg 86%
    21:00 +23°C° 0 mm 2 m/s 749 mmHg 88%
    22:00 +21°C° 0 mm 3 m/s 750 mmHg 90%
    23:00 +20°C° 0 mm 3 m/s 750 mmHg 92%

    Amanhã, 21 Junho, Sexta-feira

    Tempo Temperatura Precipitação Vento Pressão Humidade
    00:00 +20°C° 0 mm 3 m/s 750 mmHg 92%
    01:00 +20°C° 0 mm 3 m/s 750 mmHg 92%
    02:00 +19°C° 0 mm 3 m/s 750 mmHg 92%
    03:00 +19°C° 0 mm 3 m/s 750 mmHg 92%
    04:00 +19°C° 0 mm 3 m/s 750 mmHg 91%
    05:00 +19°C° 0 mm 3 m/s 750 mmHg 91%
    06:00 +21°C° 0 mm 3 m/s 750 mmHg 85%
    07:00 +22°C° 0 mm 3 m/s 750 mmHg 79%
    08:00 +25°C° 0 mm 4 m/s 751 mmHg 72%
    09:00 +26°C° 0 mm 4 m/s 750 mmHg 67%
    10:00 +28°C° 0 mm 4 m/s 750 mmHg 62%
    11:00 +29°C° 0 mm 5 m/s 750 mmHg 58%
    12:00 +29°C° 0 mm 5 m/s 750 mmHg 56%
    13:00 +30°C° 0 mm 5 m/s 750 mmHg 55%
    14:00 +30°C° 0 mm 5 m/s 750 mmHg 54%
    15:00 +30°C° 0.2 mm 4 m/s 750 mmHg 59%
    16:00 +29°C° 0.2 mm 4 m/s 749 mmHg 63%
    17:00 +29°C° 0.2 mm 3 m/s 749 mmHg 68%
    18:00 +27°C° 0.2 mm 3 m/s 749 mmHg 73%
    19:00 +26°C° 0.2 mm 3 m/s 749 mmHg 78%
    20:00 +24°C° 0.2 mm 2 m/s 749 mmHg 84%
    21:00 +22°C° 0 mm 3 m/s 749 mmHg 85%
    22:00 +22°C° 0 mm 3 m/s 750 mmHg 86%
    23:00 +21°C° 0 mm 3 m/s 750 mmHg 87%

    Depois de amanhã, 22 Junho, Sábado

    Tempo Temperatura Precipitação Vento Pressão Humidade
    00:00 +20°C° 0.1 mm 3 m/s 750 mmHg 86%
    01:00 +20°C° 0.1 mm 3 m/s 750 mmHg 85%
    02:00 +19°C° 0.1 mm 3 m/s 750 mmHg 85%
    03:00 +19°C° 0 mm 3 m/s 750 mmHg 85%
    04:00 +19°C° 0 mm 2 m/s 750 mmHg 86%
    05:00 +19°C° 0 mm 2 m/s 750 mmHg 86%
    06:00 +21°C° 0 mm 2 m/s 750 mmHg 81%
    07:00 +23°C° 0 mm 2 m/s 750 mmHg 76%
    08:00 +25°C° 0 mm 2 m/s 751 mmHg 72%
    09:00 +27°C° 0.1 mm 3 m/s 751 mmHg 67%
    10:00 +28°C° 0.1 mm 3 m/s 751 mmHg 62%
    11:00 +30°C° 0.1 mm 3 m/s 751 mmHg 56%
    12:00 +30°C° 0.8 mm 3 m/s 751 mmHg 56%
    13:00 +30°C° 0.8 mm 2 m/s 750 mmHg 57%
    14:00 +30°C° 0.8 mm 2 m/s 750 mmHg 57%
    15:00 +30°C° 0.3 mm 2 m/s 750 mmHg 59%
    16:00 +30°C° 0.3 mm 2 m/s 750 mmHg 61%
    17:00 +30°C° 0.3 mm 2 m/s 750 mmHg 63%
    18:00 +28°C° 1.5 mm 2 m/s 750 mmHg 70%
    19:00 +26°C° 1.5 mm 2 m/s 750 mmHg 77%
    20:00 +24°C° 1.5 mm 2 m/s 750 mmHg 84%
    21:00 +23°C° 2 mm 2 m/s 750 mmHg 87%
    22:00 +22°C° 2 mm 1 m/s 751 mmHg 89%
    23:00 +22°C° 2 mm 1 m/s 751 mmHg 92%

    23 Junho, Domingo

    Tempo Temperatura Precipitação Vento Pressão Humidade
    00:00 +22°C° 0.8 mm 1 m/s 751 mmHg 92%
    01:00 +21°C° 0.8 mm 1 m/s 751 mmHg 93%
    02:00 +21°C° 0.8 mm 1 m/s 751 mmHg 93%
    03:00 +21°C° 0.9 mm 1 m/s 751 mmHg 94%
    04:00 +21°C° 0.9 mm 1 m/s 751 mmHg 94%
    05:00 +21°C° 0.9 mm 1 m/s 751 mmHg 95%
    06:00 +22°C° 0.6 mm 1 m/s 751 mmHg 92%
    07:00 +24°C° 0.6 mm 2 m/s 751 mmHg 89%
    08:00 +25°C° 0.6 mm 2 m/s 751 mmHg 85%
    09:00 +26°C° 0.8 mm 2 m/s 751 mmHg 77%
    10:00 +28°C° 0.8 mm 2 m/s 752 mmHg 68%
    11:00 +29°C° 0.8 mm 1 m/s 752 mmHg 60%
    12:00 +29°C° 0.2 mm 2 m/s 752 mmHg 59%
    13:00 +29°C° 0.2 mm 2 m/s 752 mmHg 59%
    14:00 +30°C° 0.2 mm 2 m/s 751 mmHg 59%
    15:00 +28°C° 0.8 mm 2 m/s 751 mmHg 67%
    16:00 +27°C° 0.8 mm 3 m/s 751 mmHg 75%
    17:00 +25°C° 0.8 mm 3 m/s 751 mmHg 83%
    18:00 +24°C° 0.3 mm 3 m/s 751 mmHg 85%
    19:00 +24°C° 0.3 mm 3 m/s 751 mmHg 88%
    20:00 +23°C° 0.3 mm 2 m/s 751 mmHg 90%
    21:00 +21°C° 0.2 mm 2 m/s 752 mmHg 92%
    22:00 +20°C° 0.2 mm 3 m/s 752 mmHg 94%
    23:00 +19°C° 0.2 mm 3 m/s 752 mmHg 95%

    24 Junho, Segunda-feira

    Tempo Temperatura Precipitação Vento Pressão Humidade
    00:00 +19°C° 0.2 mm 3 m/s 752 mmHg 96%
    01:00 +19°C° 0.2 mm 2 m/s 752 mmHg 97%
    02:00 +18°C° 0.2 mm 2 m/s 752 mmHg 97%
    03:00 +18°C° 0.1 mm 3 m/s 752 mmHg 97%
    04:00 +18°C° 0.1 mm 3 m/s 752 mmHg 97%
    05:00 +18°C° 0.1 mm 3 m/s 752 mmHg 97%
    06:00 +19°C° 0.1 mm 3 m/s 752 mmHg 95%
    07:00 +20°C° 0.1 mm 3 m/s 753 mmHg 94%
    08:00 +21°C° 0.1 mm 4 m/s 753 mmHg 92%
    09:00 +22°C° 0.2 mm 4 m/s 753 mmHg 88%
    10:00 +22°C° 0.2 mm 4 m/s 753 mmHg 85%
    11:00 +23°C° 0.2 mm 5 m/s 753 mmHg 81%
    12:00 +25°C° 0.4 mm 5 m/s 753 mmHg 78%
    13:00 +26°C° 0.4 mm 5 m/s 753 mmHg 75%
    14:00 +27°C° 0.4 mm 5 m/s 753 mmHg 72%
    15:00 +26°C° 0.3 mm 5 m/s 753 mmHg 73%
    16:00 +26°C° 0.3 mm 5 m/s 753 mmHg 74%
    17:00 +26°C° 0.3 mm 5 m/s 753 mmHg 75%
    18:00 +23°C° 0 mm 5 m/s 753 mmHg 78%
    19:00 +22°C° 0 mm 4 m/s 753 mmHg 82%
    20:00 +21°C° 0 mm 4 m/s 753 mmHg 85%
    21:00 +20°C° 0 mm 3 m/s 753 mmHg 85%
    22:00 +19°C° 0 mm 3 m/s 754 mmHg 84%
    23:00 +18°C° 0 mm 3 m/s 754 mmHg 83%

    25 Junho, Terça-feira

    Tempo Temperatura Precipitação Vento Pressão Humidade
    00:00 +17°C° 0 mm 3 m/s 754 mmHg 82%
    01:00 +16°C° 0 mm 3 m/s 754 mmHg 81%
    02:00 +14°C° 0 mm 3 m/s 754 mmHg 80%
    03:00 +14°C° 0 mm 3 m/s 754 mmHg 81%
    04:00 +14°C° 0 mm 3 m/s 754 mmHg 82%
    05:00 +14°C° 0 mm 3 m/s 754 mmHg 83%
    06:00 +17°C° 0 mm 3 m/s 754 mmHg 78%
    07:00 +19°C° 0 mm 4 m/s 754 mmHg 74%
    08:00 +20°C° 0 mm 4 m/s 755 mmHg 69%
    09:00 +22°C° 0 mm 4 m/s 755 mmHg 65%
    10:00 +23°C° 0 mm 4 m/s 755 mmHg 61%
    11:00 +25°C° 0 mm 4 m/s 754 mmHg 58%
    12:00 +26°C° 0 mm 4 m/s 754 mmHg 57%
    13:00 +26°C° 0 mm 5 m/s 754 mmHg 56%
    14:00 +26°C° 0 mm 5 m/s 754 mmHg 55%
    15:00 +25°C° 0 mm 5 m/s 754 mmHg 57%
    16:00 +25°C° 0 mm 5 m/s 754 mmHg 60%
    17:00 +23°C° 0 mm 5 m/s 754 mmHg 63%
    18:00 +22°C° 0 mm 5 m/s 754 mmHg 66%
    19:00 +20°C° 0 mm 4 m/s 754 mmHg 70%
    20:00 +18°C° 0 mm 4 m/s 755 mmHg 74%
    21:00 +17°C° 0 mm 3 m/s 755 mmHg 75%
    22:00 +16°C° 0 mm 3 m/s 755 mmHg 77%
    23:00 +14°C° 0 mm 3 m/s 755 mmHg 78%
    Mostrar mais